Hourly Data Report for October 25, 2016

All times are specified in Local Standard Time (LST). Add 1 hour to adjust for Daylight Saving Time where and when it is observed.

TORONTO INTL A
ONTARIO

43°40'36.000" N
79°37'50.000" W
173.40 m
6158731
71624
YYZ

Download Data

Hourly Data (October 2016)
Hourly Data Report for October 25, 2016
Temp Definition
°C
Dew Point Temp Definition
°C
Rel Hum Definition
%
Wind Dir Definition
10's deg

Wind Spd Definition
km/h
Visibility Definition
km
Stn Press Definition
kPa
Hmdx Definition


Wind Chill Definition


Weather Definition


TIME
00:00 Legend Double Dagger 5.6 -0.9 63 31 16 24.1 100.27     LegendNANA
01:00 Legend Double Dagger 4.8 -1.2 65 32 19 24.1 100.29     Mostly Cloudy
02:00 Legend Double Dagger 4.9 -1.3 64 31 14 24.1 100.32     LegendNANA
03:00 Legend Double Dagger 4.8 -0.8 67 29 16 24.1 100.34     LegendNANA
04:00 Legend Double Dagger 5.0 -1.2 64 32 11 24.1 100.37     Mostly Cloudy
05:00 Legend Double Dagger 5.4 -2.7 56 31 20 24.1 100.41     LegendNANA
06:00 Legend Double Dagger 3.9 -0.3 74 1 21 24.1 100.47     LegendNANA
07:00 Legend Double Dagger 4.1 -0.5 72 35 27 24.1 100.55     Mostly Cloudy
08:00 Legend Double Dagger 4.7 -1.3 65 34 17 24.1 100.58     LegendNANA
09:00 Legend Double Dagger 4.4 0.0 73 33 36 24.1 100.62     LegendNANA
10:00 Legend Double Dagger 5.6 0.4 69 33 21 24.1 100.65     Mostly Cloudy
11:00 Legend Double Dagger 6.4 0.1 64 34 20 24.1 100.65     LegendNANA
12:00 Legend Double Dagger 6.6 0.1 63 34 19 24.1 100.67     LegendNANA
13:00 Legend Double Dagger 6.1 -0.9 61 35 30 24.1 100.67     Mainly Clear
14:00 Legend Double Dagger 7.7 -0.8 55 33 28 24.1 100.64     LegendNANA
15:00 Legend Double Dagger 7.1 -2.6 50 34 28 24.1 100.65     LegendNANA
16:00 Legend Double Dagger 6.5 -3.4 49 35 30 24.1 100.68     Mainly Clear
17:00 Legend Double Dagger 5.3 -3.5 53 36 32 24.1 100.73     LegendNANA
18:00 Legend Double Dagger 4.2 -3.1 59 36 18 24.1 100.83     LegendNANA
19:00 Legend Double Dagger 3.7 -3.4 60 1 16 24.1 100.91     Mainly Clear
20:00 Legend Double Dagger 4.0 -4.7 53 35 14 24.1 100.94     LegendNANA
21:00 Legend Double Dagger 4.2 -5.1 51 35 12 24.1 100.95     LegendNANA
22:00 Legend Double Dagger 4.1 -4.6 53 33 10 24.1 100.97     Mostly Cloudy
23:00 Legend Double Dagger 3.9 -4.1 56 32 9 24.1 101.00     LegendNANA

Notes on Data Quality.

Legend

  • E = Estimated
  • M = Missing
  • NA = Not Available
  • ‡ = Partner data that is not subject to review by the National Climate Archives
Date modified: